Marshall, TX

2:09 PM CST on December 05, 2019 (GMT -0600)
Harrison County

Weather History for KASL - October, 2019

Change the Weather History Date:

Thursday, October 17, 2019

  Actual Average (KGGG) Record (KGGG)
Temperature  
Mean Temperature 54 °F -  
Max Temperature 64 °F 75 °F 92 °F (1938)
Min Temperature 45 °F 53 °F 37 °F (2001)
Degree Days  
Heating Degree Days 10    
Growing Degree Days 4 (Base 50)    
Moisture  
Dew Point 47 °F    
Average Humidity 80    
Maximum Humidity 95    
Minimum Humidity 46    
Precipitation  
Precipitation 0.00 in - - ()
Sea Level Pressure  
Sea Level Pressure 30.07 in    
Wind  
Wind Speed 1 mph (East)    
Max Wind Speed 6 mph    
Max Gust Speed -    
Visibility 8 miles    
Events      
Averages and records for this station are not official NWS values.
T = Trace of Precipitation, MM = Missing Value Source: NWS Daily Summary

Daily Weather History Graph

Daily Weather History Graph

Search for Another Location

Airport or City:

Astronomy

Oct. 17, 2019 Rise Set
Actual Time 7:22 AM CDT 6:42 PM CDT
Civil Twilight 6:57 AM CDT 7:07 PM CDT
Nautical Twilight 6:29 AM CDT 7:35 PM CDT
Astronomical Twilight 6:00 AM CDT 8:04 PM CDT
Moon 9:25 PM CDT (10/17) 10:45 AM CDT (10/17)
Length of Visible Light 12h 09m
Length of Day
11h 19m
Waning Gibbous, 86% of the Moon is Illuminated
Oct 17
Waning Gibbous
Oct 21
Last Quarter
Oct 27
New
Nov 4
First Quarter
Nov 12
Full

Hourly Weather History & Observations

Time (CDT) Temp. Windchill Dew Point Humidity Pressure Visibility Wind Dir Wind Speed Gust Speed Precip Events Conditions
12:15 AM 47.5 °F - 45.9 °F 94% 30.12 in 5.0 mi Calm Calm - N/A   Clear
12:35 AM 48.7 °F - 47.3 °F 95% 30.12 in 10.0 mi Calm Calm - N/A   Clear
12:55 AM 47.5 °F - 45.9 °F 94% 30.11 in 5.0 mi Calm Calm - N/A   Clear
1:15 AM 47.5 °F - 45.9 °F 94% 30.11 in 7.0 mi Calm Calm - N/A   Clear
1:35 AM 46.4 °F - 44.8 °F 94% 30.11 in 7.0 mi Calm Calm - N/A   Clear
1:55 AM 47.5 °F - 45.9 °F 94% 30.12 in 7.0 mi Calm Calm - N/A   Clear
2:15 AM 47.5 °F - 45.9 °F 94% 30.11 in 7.0 mi Calm Calm - N/A   Clear
2:35 AM 47.5 °F - 45.9 °F 94% 30.12 in 7.0 mi Calm Calm - N/A   Clear
2:55 AM 45.5 °F - 43.9 °F 94% 30.12 in 5.0 mi Calm Calm - N/A   Clear
3:15 AM 45.1 °F - 43.7 °F 95% 30.11 in 7.0 mi Calm Calm - N/A   Clear
3:35 AM 46.4 °F - 44.8 °F 94% 30.11 in 7.0 mi Calm Calm - N/A   Clear
3:55 AM 45.0 °F 43.5 °F 43.7 °F 95% 30.10 in 5.0 mi North 3.5 mph - N/A   Clear
4:15 AM 46.2 °F - 44.8 °F 95% 30.10 in 7.0 mi Calm Calm - N/A   Clear
4:35 AM 45.0 °F 43.5 °F 43.7 °F 95% 30.10 in 7.0 mi North 3.5 mph - N/A   Clear
4:55 AM 45.0 °F - 43.7 °F 95% 30.09 in 10.0 mi Calm Calm - N/A   Clear
5:15 AM 47.5 °F - 46.0 °F 95% 30.09 in 10.0 mi Calm Calm - N/A   Clear
5:35 AM 45.0 °F - 43.7 °F 95% 30.10 in 5.0 mi Calm Calm - N/A   Clear
5:55 AM 45.5 °F - 43.9 °F 94% 30.11 in 7.0 mi Calm Calm - N/A   Clear
6:15 AM 45.0 °F - 43.7 °F 95% 30.11 in 5.0 mi Calm Calm - N/A   Clear
6:35 AM 45.0 °F - 43.7 °F 95% 30.10 in 5.0 mi Calm Calm - N/A   Clear
6:55 AM 45.0 °F - 43.7 °F 95% 30.11 in 5.0 mi Calm Calm - N/A   Clear
7:15 AM 45.0 °F - 43.7 °F 95% 30.11 in 7.0 mi Calm Calm - N/A   Clear
7:35 AM 45.0 °F - 43.7 °F 95% 30.11 in 5.0 mi Calm Calm - N/A   Clear
7:55 AM 45.0 °F - 43.7 °F 95% 30.11 in 5.0 mi Calm Calm - N/A   Clear
8:15 AM 47.3 °F - 45.7 °F 94% 30.11 in 5.0 mi Calm Calm - N/A   Clear
8:35 AM 49.3 °F - 47.8 °F 95% 30.12 in 10.0 mi Calm Calm - N/A   Clear
8:55 AM 50.0 °F - 48.6 °F 95% 30.12 in 10.0 mi Calm Calm - N/A   Clear
9:15 AM 52.7 °F - 50.9 °F 94% 30.13 in 10.0 mi Calm Calm - N/A   Clear
9:35 AM 52.7 °F - 50.4 °F 92% 30.13 in 10.0 mi Calm Calm - N/A   Clear
9:55 AM 54.9 °F - 48.6 °F 79% 30.13 in 10.0 mi Calm Calm - N/A   Clear
10:15 AM 57.4 °F - 47.1 °F 69% 30.13 in 10.0 mi East 5.8 mph - N/A   Clear
10:35 AM 58.3 °F - 46.0 °F 64% 30.12 in 10.0 mi ESE 4.6 mph - N/A   Clear
10:55 AM 59.9 °F - 45.3 °F 59% 30.12 in 10.0 mi ESE 4.6 mph - N/A   Clear
11:15 AM 62.6 °F - 46.9 °F 57% 30.11 in 10.0 mi ESE 3.5 mph - N/A   Clear
11:35 AM 62.6 °F - 45.9 °F 54% 30.11 in 10.0 mi East 3.5 mph - N/A   Clear
11:55 AM 62.6 °F - 45.1 °F 53% 30.10 in 10.0 mi Calm Calm - N/A   Clear
12:15 PM 64.0 °F - 46.6 °F 53% 30.09 in 10.0 mi Calm Calm - N/A   Clear
12:35 PM 64.9 °F - 46.8 °F 52% 30.08 in 10.0 mi East 3.5 mph - N/A   Clear
12:55 PM 64.9 °F - 46.4 °F 51% 30.08 in 10.0 mi SE 4.6 mph - N/A   Clear
1:15 PM 64.9 °F - 46.6 °F 51% 30.08 in 10.0 mi South 4.6 mph - N/A   Clear
1:35 PM 64.9 °F - 46.9 °F 52% 30.07 in 10.0 mi ESE 3.5 mph - N/A   Clear
1:55 PM 64.9 °F - 47.1 °F 52% 30.06 in 10.0 mi ESE 3.5 mph - N/A   Clear
2:15 PM 64.9 °F - 47.5 °F 53% 30.05 in 10.0 mi Calm Calm - N/A   Clear
2:35 PM 64.9 °F - 46.2 °F 51% 30.04 in 10.0 mi ESE 3.5 mph - N/A   Clear
2:55 PM 64.9 °F - 43.9 °F 46% 30.04 in 10.0 mi Calm Calm - N/A   Clear
3:15 PM 64.9 °F - 45.7 °F 50% 30.03 in 10.0 mi Calm Calm - N/A   Clear
3:35 PM 64.9 °F - 46.0 °F 50% 30.02 in 10.0 mi Calm Calm - N/A   Clear
3:55 PM 64.9 °F - 48.7 °F 56% 30.02 in 10.0 mi East 4.6 mph - N/A   Clear
4:15 PM 64.9 °F - 48.0 °F 54% 30.02 in 10.0 mi Calm Calm - N/A   Clear
4:35 PM 64.9 °F - 46.4 °F 51% 30.01 in 10.0 mi East 3.5 mph - N/A   Clear
4:55 PM 64.9 °F - 45.0 °F 48% 30.01 in 10.0 mi ENE 3.5 mph - N/A   Clear
5:15 PM 64.9 °F - 46.8 °F 52% 30.01 in 10.0 mi ENE 3.5 mph - N/A   Clear
5:35 PM 64.9 °F - 47.8 °F 54% 30.01 in 10.0 mi East 4.6 mph - N/A   Clear
5:55 PM 64.9 °F - 48.7 °F 56% 30.01 in 10.0 mi ESE 3.5 mph - N/A   Clear
6:35 PM 58.6 °F - 51.3 °F 76% 30.00 in 10.0 mi Calm Calm - N/A   Clear
6:55 PM 54.9 °F - 50.9 °F 86% 30.00 in 10.0 mi Calm Calm - N/A   Clear
7:15 PM 53.1 °F - 49.8 °F 89% 29.99 in 10.0 mi Calm Calm - N/A   Clear
7:35 PM 52.7 °F - 49.6 °F 89% 30.00 in 10.0 mi Calm Calm - N/A   Clear
7:55 PM 52.7 °F - 50.0 °F 91% 30.00 in 10.0 mi Calm Calm - N/A   Clear
8:15 PM 51.1 °F - 48.9 °F 92% 29.99 in 10.0 mi Calm Calm - N/A   Clear
8:35 PM 50.0 °F - 48.2 °F 94% 29.99 in 10.0 mi Calm Calm - N/A   Clear
8:55 PM 50.0 °F - 48.2 °F 94% 30.00 in 10.0 mi Calm Calm - N/A   Clear
9:15 PM 50.0 °F - 48.2 °F 94% 30.01 in 10.0 mi Calm Calm - N/A   Clear
9:35 PM 50.0 °F - 48.2 °F 94% 30.01 in 10.0 mi Calm Calm - N/A   Clear
9:55 PM 50.0 °F - 48.2 °F 94% 30.01 in 7.0 mi Calm Calm - N/A   Clear
10:15 PM 50.0 °F - 48.4 °F 94% 30.01 in 7.0 mi Calm Calm - N/A   Clear
10:35 PM 49.5 °F - 47.8 °F 94% 30.01 in 10.0 mi Calm Calm - N/A   Clear
10:55 PM 50.0 °F - 48.4 °F 94% 30.01 in 7.0 mi Calm Calm - N/A   Clear
11:15 PM 47.5 °F - 45.9 °F 94% 30.01 in 7.0 mi Calm Calm - N/A   Clear
11:35 PM 47.3 °F - 45.7 °F 94% 29.99 in 5.0 mi Calm Calm - N/A   Clear